sat.trackr.live / text

‹ back to catalog

SITRO-AIS 12 (SMIRENNIY)

NORAD 57204 · 2023-091AQ

PAYLOAD ACTIVE UNKNOWN

§ Identity

Operator
Country
CIS
Launch date
2023-06-27
Launch site
VOSTO
Launch vehicle
Mass (kg)
RCS (m²)

Purposes: tech_demo

External: N2YO · Heavens-Above · Gunter

§ Orbital elements

Epoch: 2026-05-25T04:02:58.706592Z

Period
93.66 min
Inclination
97.5102°
Eccentricity
0.0007894
Mean motion
15.37431420 rev/d
Perigee alt
448.3 km
Apogee alt
459.1 km
Semi-major
6,831.8 km
B*
5.2612e-4
RAAN
215.3771°
Arg perigee
142.5612°
Mean anomaly
217.6183°
Rev number
16,123

§ Raw data

SITRO-AIS 12 (SMIRENNIY)1 57204U 23091AQ  26145.16873503  .00019269  00000+0  52612-3 0  99992 57204  97.5102 215.3771 0007894 142.5612 217.6183 15.37431420161230

JSON: /api/v1/satellites/57204 · /tle

For live sub-satellite position, see the globe view (requires WebGL).

§ Visibility from observer

Set your observer location to see the next 7 days of passes ≥ 10°. The values pass through the URL so the page stays shareable.

No JS? Fill the form by hand. The geolocation button needs JavaScript.

§ Radio — SatNOGS DB

ModeDescriptionDownlinkUplink
GMSK USP Mode U - GMSK USP 2K4 TLM 401.350 MHz

1 transmitter · refreshed weekly from db.satnogs.org